Location: Laterina
(43.5167°N, 11.7167°E)
Time: 19:26:03
(UTC+00:00)

X-37B - Visible Passes

Search period start: 30 November 2020 00:00
Search period end: 10 December 2020 00:00
Orbit: 384 x 390 km, 45.0° (Epoch: 26 November)

Date Brightness Start Highest point End Pass type
(mag) Time Alt. Az. Time Alt. Az. Time Alt. Az.
30 Nov 0.8 16:48:23 10° WSW 16:51:31 62° SSE 16:53:08 25° E visible
30 Nov 4.0 18:25:01 10° W 18:25:25 13° W 18:25:25 13° W visible
01 Dec 0.6 17:26:24 10° W 17:29:28 71° NNW 17:29:28 71° NNW visible
02 Dec 0.5 16:27:48 10° WSW 16:30:58 89° SSE 16:33:31 15° ENE visible
02 Dec 3.1 18:04:33 10° W 18:05:47 21° WNW 18:05:47 21° WNW visible
03 Dec 0.7 17:05:55 10° W 17:09:05 64° N 17:09:50 45° ENE visible
04 Dec 0.6 16:07:18 10° W 16:10:28 72° N 16:13:39 10° ENE visible
04 Dec 1.9 17:44:03 10° WNW 17:46:11 39° WNW 17:46:11 39° WNW visible
05 Dec 0.6 16:45:27 10° W 16:48:36 65° N 16:50:19 24° E visible
05 Dec 3.9 18:22:07 10° W 18:22:36 13° W 18:22:36 13° W visible
06 Dec 0.5 17:23:31 10° WNW 17:26:42 84° SSW 17:26:47 82° SSE visible
07 Dec 0.5 16:24:56 10° WNW 16:28:07 75° N 16:31:05 11° E visible
07 Dec 2.9 18:01:42 10° W 18:03:23 24° WSW 18:03:23 24° WSW visible
08 Dec 1.1 17:03:01 10° W 17:06:08 56° SSW 17:07:49 24° SE visible
09 Dec 0.6 16:04:25 10° WNW 16:07:36 84° SSW 16:10:46 10° ESE visible
09 Dec 2.8 17:41:27 10° W 17:43:56 21° SSW 17:44:45 19° S visible
